Location: Recife
(8.0585°S, 34.8848°W)
Time: 12:45:20
(UTC-03:00)

Injun/Solrad 3 - Pass Details

Date: 21 April 2026
Orbit: 868 x 988 km, 66.8° (Epoch: 12 May)

Event Time Altitude Azimuth Distance (km) Brightness Sun altitude
Rises 18:26:52 0° 200° (SSW) 3,459 11.0 -18.4°
Reaches altitude 10° 18:29:21 10° 200° (SSW) 2,516 10.3 -19.0°
Maximum altitude 18:35:09 90° 148° (SSE) 874 7.7 -20.4°
Drops below altitude 10° 18:41:00 10° 20° (NNE) 2,525 10.1 -21.8°
Sets 18:43:29 0° 20° (NNE) 3,472 10.8 -22.4°
